Date String (YYYY-MM-DD hh:mm:ss) UTC,Instrument flags,Ambient pressure (hPa),Sample flow (lpm),Bypass flow (lpm),Sample temperature (°C),Ambient temperature (°C),ASC tube jacket temperature (°C),LED temperature (°C),Box temperature (°C),Sample RH (%),Span deviation,Mass concentration (μg/m³),Mass concentration (μg/m³),Mass concentration (μg/m³)
DateTimeUTC,F1_M11,P_M11,Q1_M11,Q2_M11,T1_M11,T2_M11,T3_M11,T4_M11,T5_M11,U1_M11,ZSPAN_M11,X0_M11,X2_M11,X1_M11
2022-07-09 03:00:00,,0832.0,5.00,0.00,29.3,27.7,00.0,38.0,31.2,31.3,0000.0,0010.42,0004.21,0003.09
2022-07-09 03:01:00,,0832.0,5.00,0.00,29.3,27.9,00.0,38.0,31.2,31.4,0000.0,0010.44,0004.24,0003.10
2022-07-09 03:02:00,,0831.9,5.01,0.00,29.3,28.1,00.0,38.1,31.3,31.5,0000.0,0010.18,0004.24,0003.09
2022-07-09 03:03:00,,0832.0,4.99,0.00,29.4,28.2,00.0,38.1,31.4,31.4,0000.0,0009.69,0004.31,0003.12
2022-07-09 03:04:00,,0832.1,5.00,0.00,29.4,28.4,00.0,38.1,31.4,31.4,0000.0,0009.61,0004.35,0003.14
2022-07-09 03:05:00,,0832.1,5.00,0.00,29.5,28.4,00.0,38.1,31.5,31.2,0000.0,0009.72,0004.39,0003.15
2022-07-09 03:06:00,,0832.1,5.00,0.00,29.5,28.0,00.0,38.1,31.4,31.0,0000.0,0009.78,0004.40,0003.16
2022-07-09 03:07:00,,0832.1,5.01,0.00,29.4,27.3,00.0,38.0,31.2,31.1,0000.0,0010.01,0004.40,0003.17
2022-07-09 03:08:00,,0832.1,5.00,0.00,29.4,26.9,00.0,38.0,31.2,31.3,0000.0,0010.61,0004.43,0003.19
2022-07-09 03:09:00,,0832.1,5.00,0.00,29.3,26.9,00.0,38.0,31.0,31.5,0000.0,0010.49,0004.41,0003.20
2022-07-09 03:10:00,,0832.1,5.00,0.00,29.2,27.0,00.0,38.0,31.0,31.7,0000.0,0010.40,0004.41,0003.22
2022-07-09 03:11:00,,0832.1,5.00,0.00,29.2,27.2,00.0,38.0,31.0,31.8,0000.0,0010.33,0004.39,0003.22
2022-07-09 03:12:00,,0832.1,5.00,0.00,29.2,27.4,00.0,38.0,31.1,31.8,0000.0,0010.35,0004.42,0003.24
2022-07-09 03:13:00,,0832.1,5.00,0.00,29.2,27.6,00.0,38.0,31.1,31.8,0000.0,0010.60,0004.46,0003.25
2022-07-09 03:14:00,,0832.1,5.01,0.00,29.3,27.8,00.0,38.0,31.2,31.7,0000.0,0010.56,0004.41,0003.25
2022-07-09 03:15:00,,0832.1,5.00,0.00,29.3,28.0,00.0,38.0,31.2,31.7,0000.0,0010.48,0004.40,0003.26
2022-07-09 03:16:00,,0832.1,5.01,0.00,29.3,28.1,00.0,38.1,31.3,31.7,0000.0,0010.48,0004.38,0003.25
2022-07-09 03:17:00,,0832.1,5.00,0.00,29.4,28.3,00.0,38.1,31.4,31.5,0000.0,0010.35,0004.35,0003.24
2022-07-09 03:18:00,,0832.0,5.00,0.00,29.4,28.4,00.0,38.1,31.4,31.4,0000.0,0010.26,0004.35,0003.25
2022-07-09 03:19:00,,0832.1,5.00,0.00,29.4,28.1,00.0,38.1,31.4,31.3,0000.0,0009.55,0004.30,0003.25
2022-07-09 03:20:00,,0832.1,5.00,0.00,29.4,27.4,00.0,38.0,31.3,31.3,0000.0,0009.66,0004.29,0003.25
2022-07-09 03:21:00,,0832.1,4.99,0.00,29.3,26.9,00.0,38.0,31.2,31.4,0000.0,0010.32,0004.30,0003.26
2022-07-09 03:22:00,,0832.1,5.00,0.00,29.3,26.8,00.0,38.0,31.0,31.5,0000.0,0011.07,0004.27,0003.25
2022-07-09 03:23:00,,0832.1,5.01,0.00,29.2,26.9,00.0,37.9,31.0,31.6,0000.0,0011.47,0004.27,0003.24
2022-07-09 03:24:00,,0832.1,5.00,0.00,29.2,27.1,00.0,37.9,31.0,31.7,0000.0,0011.78,0004.24,0003.23
2022-07-09 03:25:00,,0832.1,5.00,0.00,29.2,27.3,00.0,37.9,31.0,31.7,0000.0,0012.10,0004.23,0003.22
2022-07-09 03:26:00,,0832.1,4.99,0.00,29.2,27.5,00.0,38.0,31.1,31.8,0000.0,0012.26,0004.22,0003.21
2022-07-09 03:27:00,,0832.1,5.01,0.00,29.2,27.7,00.0,38.0,31.1,31.6,0000.0,0013.07,0004.22,0003.22
2022-07-09 03:28:00,,0832.2,4.99,0.00,29.2,27.8,00.0,38.0,31.1,31.4,0000.0,0013.17,0004.21,0003.24
2022-07-09 03:29:00,,0832.2,5.00,0.00,29.3,28.0,00.0,38.0,31.2,31.4,0000.0,0012.97,0004.17,0003.23
2022-07-09 03:30:00,,0832.3,5.01,0.00,29.3,28.1,00.0,38.0,31.3,31.2,0000.0,0012.87,0004.16,0003.23
2022-07-09 03:31:00,,0832.3,5.00,0.00,29.3,28.3,00.0,38.1,31.3,31.0,0000.0,0012.73,0004.15,0003.22
2022-07-09 03:32:00,,0832.2,5.01,0.00,29.4,28.4,00.0,38.1,31.4,30.9,0000.0,0012.28,0004.12,0003.21
2022-07-09 03:33:00,,0832.2,5.00,0.00,29.4,28.3,00.0,38.1,31.4,30.8,0000.0,0011.91,0004.14,0003.20
2022-07-09 03:34:00,,0832.3,5.01,0.00,29.4,27.7,00.0,38.0,31.3,30.9,0000.0,0011.54,0004.08,0003.19
2022-07-09 03:35:00,,0832.3,5.00,0.00,29.3,27.0,00.0,38.0,31.1,30.8,0000.0,0011.81,0004.10,0003.19
2022-07-09 03:36:00,,0832.3,4.99,0.00,29.3,26.8,00.0,38.0,31.0,31.0,0000.0,0011.42,0004.14,0003.20
2022-07-09 03:37:00,,0832.4,5.00,0.00,29.2,26.8,00.0,38.0,30.9,31.1,0000.0,0011.39,0004.14,0003.20
2022-07-09 03:38:00,,0832.4,5.00,0.00,29.2,27.0,00.0,37.9,30.9,31.2,0000.0,0010.38,0004.09,0003.18
2022-07-09 03:39:00,,0832.3,4.99,0.00,29.1,27.2,00.0,37.9,31.0,31.2,0000.0,0010.17,0004.08,0003.16
2022-07-09 03:40:00,,0832.3,5.00,0.00,29.2,27.3,00.0,38.0,31.0,31.2,0000.0,0010.23,0004.09,0003.15
2022-07-09 03:41:00,,0832.3,5.00,0.00,29.2,27.5,00.0,38.0,31.0,30.9,0000.0,0010.80,0004.11,0003.15
2022-07-09 03:42:00,,0832.3,5.02,0.00,29.2,27.7,00.0,38.0,31.1,31.0,0000.0,0010.79,0004.12,0003.13
2022-07-09 03:43:00,,0832.3,5.00,0.00,29.2,27.9,00.0,38.0,31.1,30.9,0000.0,0010.53,0004.12,0003.13
2022-07-09 03:44:00,,0832.3,5.00,0.00,29.3,28.0,00.0,38.0,31.2,30.8,0000.0,0010.42,0004.16,0003.13
2022-07-09 03:45:00,,0832.3,4.99,0.00,29.3,28.1,00.0,38.0,31.2,30.7,0000.0,0010.06,0004.16,0003.13
2022-07-09 03:46:00,,0832.3,5.00,0.00,29.3,28.3,00.0,38.0,31.3,30.6,0000.0,0009.41,0004.11,0003.13
2022-07-09 03:47:00,,0832.4,5.00,0.00,29.4,28.4,00.0,38.1,31.3,30.5,0000.0,0009.06,0004.03,0003.12
2022-07-09 03:48:00,,0832.4,5.00,0.00,29.4,28.5,00.0,38.1,31.4,30.6,0000.0,0008.94,0003.98,0003.12
2022-07-09 03:49:00,,0832.4,5.00,0.00,29.5,28.4,00.0,38.1,31.4,30.6,0000.0,0008.97,0004.00,0003.12
2022-07-09 03:50:00,,0832.4,5.00,0.00,29.4,27.7,00.0,38.0,31.3,30.5,0000.0,0008.76,0003.95,0003.12
2022-07-09 03:51:00,,0832.4,5.01,0.00,29.4,27.0,00.0,38.0,31.1,30.6,0000.0,0008.87,0003.91,0003.12
2022-07-09 03:52:00,,0832.4,5.00,0.00,29.3,26.8,00.0,38.0,31.0,30.4,0000.0,0008.30,0003.86,0003.11
2022-07-09 03:53:00,,0832.4,5.00,0.00,29.2,26.8,00.0,38.0,30.9,30.3,0000.0,0008.08,0003.81,0003.10
2022-07-09 03:54:00,,0832.4,5.00,0.00,29.2,26.9,00.0,37.9,30.9,30.2,0000.0,0008.56,0003.81,0003.10
2022-07-09 03:55:00,,0832.5,5.00,0.00,29.2,27.1,00.0,37.9,31.0,30.0,0000.0,0008.81,0003.77,0003.08
2022-07-09 03:56:00,,0832.5,4.99,0.00,29.2,27.3,00.0,37.9,31.0,30.0,0000.0,0008.72,0003.74,0003.06
2022-07-09 03:57:00,,0832.5,5.00,0.00,29.2,27.5,00.0,38.0,31.1,29.9,0000.0,0008.74,0003.72,0003.04
2022-07-09 03:58:00,,0832.5,5.00,0.00,29.2,27.7,00.0,38.0,31.1,29.9,0000.0,0008.77,0003.71,0003.03
2022-07-09 03:59:00,,0832.5,4.99,0.00,29.2,27.9,00.0,38.0,31.2,29.5,0000.0,0008.83,0003.71,0003.03
